Showing default

GHGSAT-C2, 47509

Orbit data source: Space-Track

GHGSAT-C2, 47509 is a payload satellite owned by GHG (CA) in SSO that was launched on Sun, 24 Jan 2021 UTC via an FALCON 9 launch vehicle from the Air Force Eastern Test Range (AFETR). Payload-class satellites include a variety of spacecraft equipped with specific instruments for various scientific and technological missions. These include communications satellites like Starlink; space stations such as the ISS; scientific satellites like the Hubble; Earth observation satellites from companies like Planet Labs, Umbra, and HawkEye 360; GPS; miniature CubeSats for education and research; and military/defense satellites.

Loading next visibility...
Identifier
47509, 2021-006DA
Orbit
SSO
Country
Flag of CACA
Related business
Manufacturer
UTIAS-SFL
Mission
Operational Commercial Earth Obs Sci
Bus & Motor
NEMO-V1, Unknown motor
Mass
15 kg wet, 15 kg dry
Launch date (UTC)
2021-01-24 (5 years ago)
Launch vehicle
FALCON 9
Launch site
Air Force Eastern Test Range (AFETR)
Object type
Payload
Rocket body
Debris
Shape & HBR
Box, 1.0 m
Radar Cross Section
0.100 m², Medium (>0.1 m² and < 1m²)

Expand to show TLE details & history
Last TLE update: 18 hours ago

TLE from 18 hours ago
0 GHGSAT-C2
1 47509U 21006DA  26126.56238296  .00005619  00000-0  15589-3 0  9994
2 47509  97.2179 174.5419 0003946 335.9109  24.1951 15.37312255293454
Epoch: 2026-05-06T13:29Z
TLE epoch observation values (Epoch: 2026-05-06T13:29:49.887Z)
Latitude
-0.00003°
Longitude
107.66295°
Altitude
454.721 km
Speed
7.641 km/s
True Right ascension
11h 38m 10s
True Declination
0° 00' 00"
Sunlit
Object was in full shadow at epoch
Visualization orbit readout
Latitude
Unknown
Longitude
Unknown
Altitude
Unknown
Speed
Unknown
Apparent Right ascension
Unknown
Apparent Declination
Unknown
Sunlit
N/A
Visualization observer readout
Local Sidereal Time
15:02:04
Azimuth
Unknown
Elevation
Unknown
Doppler factor
Unknown
Orbital elements
Apogee altitude
453.691 km
Perigee altitude
448.301 km
Semi-major axis
6,829.133 km
Eccentricity
0.00039
Inclination
97.2179°
RAAN
174.5419°
Arg. of periapsis
335.9109°
True anomaly
24.21364°
Mean anomaly
24.1951°
Eccentric anomaly
24.20437°
Mean motion
3.84587 °/min
Orbital period
93.61 mins
BSTAR
0.00015589
Loading maneuver chart data...
Computing Atmospheric mass density...

Documentation

Showing up to 5 results
|